User: anonymous   Login
Location: Dammartin
(48.9032°N, 1.6195°E)
Time: 21:59:44
(UTC+00:00)
Language:

FENGYUN 1C DEB - Orbit

View from above orbital plane
View from above orbital plane
View from above satellite
View from above satellite

Ground track
Ground track

The orbit data is extracted from the following two-line orbital elements,

1 32221U 99025CVT 24147.83527236  .00002435  00000-0  49063-3 0  9998
2 32221  98.4933 278.0679 0155726  84.2734 277.6195 14.55034714889715
Epoch (UTC): 26 May 2024 20:02:47
Eccentricity: 0.0155726
inclination: 98.4933°
perigee height: 599 km
apogee height: 819 km
right ascension of ascending node: 278.0679°
argument of perigee: 84.2734°
revolutions per day: 14.55034714
mean anomaly at epoch: 277.6195°
orbit number at epoch: 88971

The dashed part of the orbit path shows where the satellite is in the earth's shadow,  

DLR